Regional Weather Roundup
Issued by NWS Albany, NY

Home | Current Version | Previous Version | Text Only | Print | Product List | Glossary On
Versions: 1 2 3 4 5 6 7 8 9 10 11 12 13 14 15 16 17 18 19 20 21 22 23 24 25 26 27 28 29 30 31 32 33 34 35 36 37 38 39 40 41 42 43 44 45 46 47 48 49 50
652
ASUS41 KALY 041710
RWRALY

NEW YORK STATE HOURLY WEATHER ROUNDUP
NATIONAL WEATHER SERVICE ALBANY NY
1200 PM EST SUN DEC 04 2016

NOTE: "FAIR" INDICATES FEW OR NO CLOUDS BELOW 12,000 FEET WITH NO
SIGNIFICANT WEATHER AND/OR NO OBSTRUCTIONS TO VISIBILITY.

NYZ032-033-038>043-046>054-057>066-NYZ062>081-082-084-041800-
EAST


CITY           SKY/WX    TMP DP  RH WIND       PRES   REMARKS
ALBANY         CLOUDY    34  20  56 NW9       30.26F WCI  27
GLENS FALLS    CLOUDY    35  20  54 NW7       30.25F WCI  29
POUGHKEEPSIE   SUNNY     39  22  50 VRB6      30.22F WCI  35
NEWBURGH       SUNNY     39  25  56 VRB5      30.22F
MONTGOMERY     SUNNY     43  22  43 NW10      30.19F
WHITE PLAINS   SUNNY     41  20  43 NW14G20   30.19F
ISLIP          MOSUNNY   42  24  49 NW10      30.20S
NEW YORK CITY  MOSUNNY   45  23  42 N9G18     30.21F
CENTRAL PARK   SUNNY     44  21  40 N9        30.23F
$$

NYZ005>009-017-018-044>046-055-056-041800-
CENTRAL


CITY           SKY/WX    TMP DP  RH WIND       PRES   REMARKS
FULTON         CLOUDY    34  22  61 CALM      30.28R
SYRACUSE       PTSUNNY   35  23  61 N3        30.27S
ROME           CLOUDY    30  21  69 NW5       30.29F WCI  25
ELMIRA         PTSUNNY   38  22  52 NW6       30.23F WCI  33
BINGHAMTON     MOSUNNY   34  23  64 NW6       30.19F WCI  29
MONTICELLO     SUNNY     37  21  52 NW12      30.18F WCI  30
$$

NYZ026>034-041>043-087-041800-
NORTH


CITY           SKY/WX    TMP DP  RH WIND       PRES   REMARKS
WATERTOWN      CLOUDY    32  20  61 E6        30.28F WCI  26
FORT DRUM      NOT AVBL
OGDENSBURG     PTSUNNY   31  22  69 CALM      30.28F
MASSENA        CLOUDY    33  20  58 W7        30.29F WCI  27
SARANAC LAKE   CLOUDY    24  18  77 VRB6      30.18S WCI  17
PLATTSBURGH    CLOUDY    35  19  52 VRB6      30.25F WCI  30
$$

NYZ001>004-010>016-019>021-085-041800-
WEST


CITY           SKY/WX    TMP DP  RH WIND       PRES   REMARKS
NIAGARA FALLS  CLOUDY    40  30  67 E10       30.22F WCI  33
BUFFALO        PTSUNNY   38  29  70 E7        30.22F WCI  33
DUNKIRK        CLOUDY    39  33  79 E5        30.22F
JAMESTOWN      CLOUDY    34  28  80 SE6       30.17F WCI  29
WELLSVILLE     CLOUDY    36  24  62 NW7       30.19F WCI  30
ROCHESTER      CLOUDY    38  28  67 NW6       30.26F WCI  33
PENN YAN       PTSUNNY   38  24  57 NW6       30.24F WCI  33
$$

             KEY
       WCI = WIND CHILL INDEX
       VSB = VISIBILITY
       HX  = HEAT INDEX
$$




USA.gov is the U.S. government's official web portal to all federal, state and local government web resources and services.